Language: 


Des rapports , des résumés tant et plus, au choix de chacun....


Données Historiques de Météogheer
Journalier Rapport pour Février 14, 2018 Unitée:  Métrique    Impériale   Les deux
Suivant Jour »
Journalier Hebdomadaire Mensuel Annuel Sur mesure
  Max: Min: Moyenne:
Température: 6.7 °C 0.7 °C 3.4 °C
Point de rosée: 3.0 °C -2.0 °C 0.8 °C
Humidité: 95% 69% 82%
Vent: 41.0km/h 0.0km/h 12.7km/h
Rafales: 42.2km/h - -
Vent- - South
Pression: 1011.1 hPa 1007.0 hPa -
Pluie: 2.0 mm    
Historical Graphs
 
 
Données tabulaires pour Février 14, 2018
Heure Température Point de rosée Pression Vent Vent Rafales Humidité Pluie Taux (Horaire) Conditions
00:02 1.4 °C -2.0 °C 1007.0 hPa Calm   14.0 km/h 78% 0.0 mm
00:07 1.4 °C -2.0 °C 1007.0 hPa ESE 7.9 km/h 13.0 km/h 78% 0.0 mm
00:12 1.4 °C -2.0 °C 1007.0 hPa Calm   12.2 km/h 78% 0.0 mm
00:17 1.4 °C -2.0 °C 1007.0 hPa Calm   10.5 km/h 78% 0.0 mm
00:22 1.4 °C -2.0 °C 1007.0 hPa SE 9.0 km/h 11.1 km/h 78% 0.0 mm
00:27 1.3 °C -2.0 °C 1007.0 hPa SSE 6.1 km/h 11.1 km/h 78% 0.0 mm
00:32 1.4 °C -2.0 °C 1007.0 hPa SSE 1.4 km/h 13.7 km/h 77% 0.0 mm
00:37 1.3 °C -2.0 °C 1007.0 hPa South 1.4 km/h 13.7 km/h 78% 0.0 mm
00:42 1.3 °C -2.0 °C 1007.0 hPa SSE 5.0 km/h 11.6 km/h 77% 0.0 mm
00:47 1.3 °C -2.0 °C 1007.0 hPa SSE 6.4 km/h 9.0 km/h 77% 0.0 mm
00:52 1.2 °C -2.0 °C 1007.0 hPa SSE 9.7 km/h 10.1 km/h 77% 0.0 mm
00:57 1.2 °C -2.0 °C 1007.0 hPa SSE 3.2 km/h 10.1 km/h 77% 0.0 mm
01:02 1.2 °C -2.0 °C 1007.0 hPa South 10.1 km/h 12.6 km/h 77% 0.0 mm
01:07 1.2 °C -2.0 °C 1007.0 hPa ESE 10.1 km/h 12.6 km/h 77% 0.0 mm
01:12 1.2 °C -2.0 °C 1007.0 hPa South 10.1 km/h 16.3 km/h 77% 0.0 mm
01:18 1.2 °C -2.0 °C 1008.0 hPa SSE 9.0 km/h 16.3 km/h 77% 0.0 mm
01:23 1.3 °C -2.0 °C 1008.0 hPa Calm   19.8 km/h 77% 0.0 mm
01:28 1.2 °C -2.0 °C 1008.0 hPa SSE 11.6 km/h 19.8 km/h 77% 0.0 mm
01:33 1.2 °C -2.0 °C 1008.0 hPa SSE 10.5 km/h 17.2 km/h 77% 0.0 mm
01:38 1.2 °C -2.0 °C 1008.0 hPa SSE 5.5 km/h 17.2 km/h 77% 0.0 mm
01:48 1.1 °C -2.0 °C 1007.0 hPa SSE 8.7 km/h 14.0 km/h 78% 0.0 mm
01:53 1.1 °C -2.0 °C 1007.0 hPa SSE 10.5 km/h 16.3 km/h 78% 0.0 mm
01:58 1.1 °C -2.0 °C 1007.0 hPa South 8.7 km/h 17.7 km/h 78% 0.0 mm
02:03 1.1 °C -2.0 °C 1008.0 hPa Calm   17.7 km/h 78% 0.0 mm
02:08 1.0 °C -2.0 °C 1008.0 hPa South 8.7 km/h 13.0 km/h 79% 0.0 mm
02:13 1.0 °C -2.0 °C 1008.0 hPa SE 3.2 km/h 13.0 km/h 79% 0.0 mm
02:18 1.0 °C -2.0 °C 1008.0 hPa Calm   15.4 km/h 79% 0.0 mm
02:23 1.0 °C -2.0 °C 1008.0 hPa Calm   15.4 km/h 80% 0.0 mm
02:28 1.0 °C -2.0 °C 1009.0 hPa Calm   16.6 km/h 80% 0.0 mm
02:34 1.0 °C -2.0 °C 1009.0 hPa South 8.7 km/h 16.6 km/h 81% 0.0 mm
02:39 1.0 °C -1.0 °C 1009.0 hPa South 9.3 km/h 14.0 km/h 82% 0.0 mm
02:44 1.0 °C -1.0 °C 1009.0 hPa Calm   14.0 km/h 82% 0.0 mm
02:49 1.0 °C -1.0 °C 1009.0 hPa South 7.6 km/h 12.6 km/h 82% 0.0 mm
02:54 0.9 °C -1.0 °C 1009.0 hPa Calm   13.0 km/h 83% 0.0 mm
02:59 0.9 °C -1.0 °C 1009.0 hPa SSE 15.4 km/h 15.4 km/h 83% 0.0 mm
03:04 0.9 °C -1.0 °C 1009.0 hPa South 9.3 km/h 15.4 km/h 84% 0.0 mm
03:09 0.8 °C -1.0 °C 1009.0 hPa Calm   10.1 km/h 84% 0.0 mm
03:14 0.8 °C -1.0 °C 1009.0 hPa South 1.4 km/h 11.9 km/h 84% 0.0 mm
03:19 0.8 °C -1.0 °C 1009.0 hPa SSE 8.7 km/h 12.6 km/h 85% 0.0 mm
03:24 0.9 °C -1.0 °C 1009.0 hPa SSE 12.2 km/h 14.0 km/h 86% 0.0 mm
03:29 0.9 °C -1.0 °C 1009.0 hPa SE 5.0 km/h 15.8 km/h 86% 0.0 mm
03:34 0.9 °C -1.0 °C 1009.0 hPa SSE 7.6 km/h 15.8 km/h 87% 0.0 mm
03:39 0.9 °C -1.0 °C 1009.0 hPa SSE 10.1 km/h 15.4 km/h 87% 0.0 mm
03:44 0.9 °C -1.0 °C 1009.0 hPa SSE 9.0 km/h 16.6 km/h 87% 0.0 mm
03:49 0.9 °C -1.0 °C 1009.0 hPa SE 10.5 km/h 16.6 km/h 87% 0.0 mm
03:54 0.9 °C -1.0 °C 1009.0 hPa SSE 4.0 km/h 15.4 km/h 87% 0.0 mm
03:59 0.9 °C -1.0 °C 1009.0 hPa Calm   13.0 km/h 87% 0.0 mm
04:04 0.9 °C -1.0 °C 1009.0 hPa South 6.1 km/h 12.2 km/h 86% 0.0 mm
04:09 0.9 °C -1.0 °C 1009.0 hPa SSE 10.5 km/h 13.7 km/h 86% 0.0 mm
04:14 0.9 °C -1.0 °C 1010.0 hPa South 10.1 km/h 13.7 km/h 86% 0.0 mm
04:19 1.0 °C -1.0 °C 1010.0 hPa SSE 3.2 km/h 13.7 km/h 86% 0.0 mm
04:24 1.0 °C -1.0 °C 1010.0 hPa South 10.1 km/h 13.7 km/h 86% 0.0 mm
04:29 1.0 °C -1.0 °C 1009.0 hPa South 5.5 km/h 12.6 km/h 86% 0.0 mm
04:34 1.0 °C -1.0 °C 1009.0 hPa South 7.9 km/h 13.7 km/h 85% 0.0 mm
04:39 0.9 °C -1.0 °C 1009.0 hPa SSE 11.1 km/h 13.7 km/h 86% 0.0 mm
04:44 0.9 °C -1.0 °C 1009.0 hPa SSE 9.3 km/h 14.0 km/h 86% 0.0 mm
04:49 0.9 °C -1.0 °C 1010.0 hPa Calm   14.0 km/h 86% 0.0 mm
04:54 0.9 °C -1.0 °C 1010.0 hPa South 6.9 km/h 13.7 km/h 87% 0.0 mm
04:59 0.9 °C -1.0 °C 1009.0 hPa South 8.7 km/h 11.6 km/h 87% 0.0 mm
05:04 1.0 °C -1.0 °C 1009.0 hPa South 9.7 km/h 11.9 km/h 87% 0.0 mm
05:09 1.0 °C -1.0 °C 1009.0 hPa Calm   15.4 km/h 87% 0.0 mm
05:15 1.0 °C -1.0 °C 1009.0 hPa South 4.0 km/h 15.4 km/h 87% 0.0 mm
05:20 1.0 °C -1.0 °C 1009.0 hPa Calm   12.6 km/h 87% 0.0 mm
05:25 0.9 °C -1.0 °C 1009.0 hPa Calm   11.9 km/h 87% 0.0 mm
05:27 0.9 °C -1.0 °C 1009.0 hPa SSE 6.4 km/h 10.1 km/h 87% 0.0 mm
05:32 0.8 °C -1.0 °C 1009.0 hPa Calm   17.2 km/h 87% 0.0 mm
05:37 0.8 °C -1.0 °C 1009.0 hPa South 5.0 km/h 17.2 km/h 87% 0.0 mm
05:42 0.7 °C -1.0 °C 1009.0 hPa Calm   13.7 km/h 87% 0.0 mm
05:47 0.7 °C -1.0 °C 1009.0 hPa SE 8.7 km/h 10.5 km/h 88% 0.0 mm
05:52 0.7 °C -1.0 °C 1009.0 hPa SSE 5.8 km/h 12.2 km/h 88% 0.0 mm
05:57 0.7 °C -1.0 °C 1009.0 hPa Calm   13.7 km/h 89% 0.0 mm
06:02 0.7 °C -1.0 °C 1009.0 hPa SSE 9.3 km/h 14.0 km/h 89% 0.0 mm
06:07 0.8 °C 0.0 °C 1009.0 hPa SSE 5.5 km/h 14.0 km/h 89% 0.0 mm
06:12 0.8 °C 0.0 °C 1009.0 hPa SSE 9.0 km/h 14.0 km/h 89% 0.0 mm
06:17 0.7 °C -1.0 °C 1008.0 hPa South 8.7 km/h 13.0 km/h 89% 0.0 mm
06:22 0.8 °C -1.0 °C 1008.0 hPa SE 10.5 km/h 19.8 km/h 88% 0.0 mm
06:27 0.8 °C -1.0 °C 1008.0 hPa SSE 10.5 km/h 19.8 km/h 88% 0.0 mm
06:33 0.7 °C -1.0 °C 1009.0 hPa SE 10.1 km/h 17.7 km/h 88% 0.0 mm
06:38 0.7 °C -1.0 °C 1009.0 hPa SSE 11.9 km/h 19.1 km/h 88% 0.0 mm
06:43 0.7 °C -1.0 °C 1009.0 hPa South 3.5 km/h 19.1 km/h 88% 0.0 mm
06:48 0.7 °C -1.0 °C 1008.0 hPa South 8.7 km/h 11.6 km/h 88% 0.0 mm
06:53 0.7 °C -1.0 °C 1008.0 hPa South 6.9 km/h 11.6 km/h 89% 0.0 mm
06:58 0.7 °C -1.0 °C 1008.0 hPa SE 6.9 km/h 9.0 km/h 88% 0.0 mm
07:03 0.7 °C -1.0 °C 1009.0 hPa SSE 10.5 km/h 10.5 km/h 89% 0.0 mm
07:08 0.7 °C -1.0 °C 1009.0 hPa SSE 3.2 km/h 11.1 km/h 89% 0.0 mm
07:13 0.8 °C 0.0 °C 1009.0 hPa Calm   13.7 km/h 89% 0.0 mm
07:18 0.9 °C 0.0 °C 1009.0 hPa SSE 5.5 km/h 13.7 km/h 90% 0.0 mm
07:23 0.9 °C 0.0 °C 1009.0 hPa SSE 9.3 km/h 15.4 km/h 90% 0.0 mm
07:28 1.0 °C 0.0 °C 1009.0 hPa SSE 9.7 km/h 15.4 km/h 90% 0.0 mm
07:33 1.1 °C 0.0 °C 1009.0 hPa Calm   13.7 km/h 90% 0.0 mm
07:38 1.3 °C 0.0 °C 1009.0 hPa SSE 11.9 km/h 13.7 km/h 91% 0.0 mm
07:43 1.3 °C 0.0 °C 1009.0 hPa SSE 5.8 km/h 12.6 km/h 91% 0.0 mm
07:48 1.4 °C 0.0 °C 1010.0 hPa SSE 4.7 km/h 23.8 km/h 91% 0.0 mm
07:53 1.4 °C 0.0 °C 1010.0 hPa SSE 18.0 km/h 23.8 km/h 91% 0.0 mm
07:58 1.4 °C 0.0 °C 1010.0 hPa SSE 1.4 km/h 18.0 km/h 90% 0.0 mm
08:03 1.5 °C 0.0 °C 1010.0 hPa South 11.9 km/h 14.0 km/h 90% 0.0 mm
08:08 1.5 °C 0.0 °C 1010.0 hPa Calm   17.2 km/h 90% 0.0 mm
08:13 1.6 °C 0.0 °C 1010.0 hPa South 5.5 km/h 17.2 km/h 90% 0.0 mm
08:18 1.6 °C 0.0 °C 1010.0 hPa South 9.3 km/h 19.8 km/h 90% 0.0 mm
08:24 1.7 °C 1.0 °C 1010.0 hPa South 16.3 km/h 19.8 km/h 91% 0.0 mm
08:29 1.7 °C 1.0 °C 1010.0 hPa SSE 12.6 km/h 19.8 km/h 91% 0.0 mm
08:34 1.7 °C 1.0 °C 1010.0 hPa South 10.5 km/h 20.1 km/h 91% 0.0 mm
08:39 1.7 °C 1.0 °C 1010.0 hPa South 8.7 km/h 20.1 km/h 91% 0.0 mm
08:44 1.7 °C 1.0 °C 1010.0 hPa South 20.1 km/h 20.1 km/h 91% 0.0 mm
08:49 1.7 °C 1.0 °C 1010.0 hPa South 12.2 km/h 20.6 km/h 92% 0.0 mm
08:54 1.8 °C 1.0 °C 1010.0 hPa SSE 12.2 km/h 20.9 km/h 92% 0.0 mm
08:59 1.8 °C 1.0 °C 1010.0 hPa South 10.5 km/h 24.8 km/h 92% 0.0 mm
09:04 1.8 °C 1.0 °C 1010.0 hPa South 6.9 km/h 24.8 km/h 92% 0.0 mm
09:09 1.8 °C 1.0 °C 1010.0 hPa SSE 2.6 km/h 21.2 km/h 92% 0.0 mm
09:14 1.8 °C 1.0 °C 1010.0 hPa South 10.1 km/h 21.2 km/h 92% 0.0 mm
09:19 1.9 °C 1.0 °C 1010.0 hPa SSE 9.0 km/h 20.9 km/h 92% 0.0 mm
09:24 2.0 °C 1.0 °C 1010.0 hPa South 15.4 km/h 21.9 km/h 91% 0.0 mm
09:29 2.0 °C 1.0 °C 1011.1 hPa South 19.1 km/h 23.3 km/h 91% 0.0 mm
09:34 2.0 °C 1.0 °C 1011.1 hPa South 10.5 km/h 23.3 km/h 90% 0.0 mm
09:40 2.0 °C 1.0 °C 1011.1 hPa SSW 12.6 km/h 23.0 km/h 90% 0.0 mm
09:45 2.0 °C 1.0 °C 1011.1 hPa SSW 19.5 km/h 23.0 km/h 90% 0.0 mm
09:50 2.0 °C 1.0 °C 1011.1 hPa SSE 12.2 km/h 20.1 km/h 91% 0.0 mm
09:55 2.0 °C 1.0 °C 1011.1 hPa SSW 14.0 km/h 20.1 km/h 91% 0.0 mm
10:00 2.1 °C 1.0 °C 1011.1 hPa South 17.2 km/h 21.6 km/h 91% 0.0 mm
10:05 2.1 °C 1.0 °C 1011.1 hPa SSE 10.5 km/h 21.6 km/h 91% 0.0 mm
10:11 2.2 °C 1.0 °C 1011.1 hPa SSW 11.6 km/h 19.8 km/h 91% 0.0 mm
10:16 2.3 °C 1.0 °C 1011.1 hPa SSW 13.0 km/h 19.8 km/h 91% 0.0 mm
10:21 2.4 °C 1.0 °C 1011.1 hPa South 9.7 km/h 20.6 km/h 91% 0.0 mm
10:26 2.4 °C 1.0 °C 1011.1 hPa SSW 13.7 km/h 21.9 km/h 91% 0.0 mm
10:31 2.4 °C 1.0 °C 1011.1 hPa SSE 15.8 km/h 23.3 km/h 91% 0.0 mm
10:36 2.5 °C 2.0 °C 1011.1 hPa South 19.5 km/h 23.3 km/h 91% 0.0 mm
10:41 2.6 °C 2.0 °C 1011.1 hPa SSW 11.9 km/h 23.3 km/h 91% 0.0 mm
10:46 2.6 °C 2.0 °C 1010.0 hPa South 14.0 km/h 23.3 km/h 91% 0.0 mm
10:51 2.7 °C 2.0 °C 1010.0 hPa South 14.0 km/h 21.9 km/h 91% 0.0 mm
10:56 2.9 °C 2.0 °C 1010.0 hPa SSE 14.0 km/h 23.0 km/h 90% 0.0 mm
11:01 3.0 °C 2.0 °C 1011.1 hPa SSE 13.0 km/h 28.5 km/h 89% 0.0 mm
11:06 3.2 °C 2.0 °C 1011.1 hPa SSE 12.2 km/h 28.5 km/h 88% 0.0 mm
11:11 3.6 °C 2.0 °C 1011.1 hPa SSW 16.3 km/h 26.7 km/h 88% 0.0 mm
11:16 3.6 °C 2.0 °C 1011.1 hPa SSW 11.1 km/h 19.8 km/h 87% 0.0 mm
11:21 3.7 °C 2.0 °C 1011.1 hPa South 16.3 km/h 19.8 km/h 87% 0.0 mm
11:26 3.8 °C 2.0 °C 1011.1 hPa South 10.1 km/h 23.3 km/h 86% 0.0 mm
11:31 3.8 °C 2.0 °C 1010.0 hPa South 9.7 km/h 23.3 km/h 85% 0.0 mm
11:36 4.1 °C 2.0 °C 1010.0 hPa SW 19.5 km/h 20.9 km/h 86% 0.0 mm
11:41 4.2 °C 2.0 °C 1010.0 hPa SSW 16.9 km/h 20.9 km/h 84% 0.0 mm
11:46 4.4 °C 2.0 °C 1011.1 hPa South 20.9 km/h 20.9 km/h 83% 0.0 mm
11:51 4.6 °C 2.0 °C 1011.1 hPa South 14.3 km/h 20.9 km/h 83% 0.0 mm
11:56 4.8 °C 2.0 °C 1011.1 hPa South 21.2 km/h 21.2 km/h 81% 0.0 mm
12:02 5.1 °C 2.0 °C 1011.1 hPa SSW 11.9 km/h 21.2 km/h 80% 0.0 mm
12:06 5.2 °C 2.0 °C 1011.1 hPa South 7.9 km/h 19.8 km/h 79% 0.0 mm
12:12 5.5 °C 3.0 °C 1011.1 hPa South 16.6 km/h 19.8 km/h 80% 0.0 mm
12:17 5.6 °C 2.0 °C 1010.0 hPa South 12.6 km/h 18.3 km/h 78% 0.0 mm
12:22 5.8 °C 3.0 °C 1010.0 hPa South 14.0 km/h 18.3 km/h 78% 0.0 mm
12:27 6.0 °C 3.0 °C 1010.0 hPa SSW 14.0 km/h 18.0 km/h 77% 0.0 mm
12:32 6.0 °C 2.0 °C 1010.0 hPa SSE 12.6 km/h 20.6 km/h 76% 0.0 mm
12:37 6.1 °C 2.0 °C 1010.0 hPa South 16.3 km/h 20.6 km/h 75% 0.0 mm
12:42 6.3 °C 3.0 °C 1010.0 hPa South 14.0 km/h 20.6 km/h 75% 0.0 mm
12:47 6.2 °C 2.0 °C 1011.1 hPa South 11.9 km/h 20.6 km/h 74% 0.0 mm
12:52 6.1 °C 2.0 °C 1011.1 hPa SSW 21.6 km/h 21.6 km/h 74% 0.0 mm
12:57 6.3 °C 2.0 °C 1011.1 hPa SSW 24.8 km/h 26.2 km/h 74% 0.0 mm
13:02 6.3 °C 2.0 °C 1011.1 hPa South 11.9 km/h 26.2 km/h 74% 0.0 mm
13:07 6.5 °C 3.0 °C 1011.1 hPa SSW 16.9 km/h 24.8 km/h 74% 0.0 mm
13:12 6.3 °C 2.0 °C 1011.1 hPa South 14.0 km/h 24.5 km/h 72% 0.0 mm
13:17 6.2 °C 2.0 °C 1011.1 hPa South 13.7 km/h 24.5 km/h 73% 0.0 mm
13:22 6.1 °C 2.0 °C 1011.1 hPa South 16.6 km/h 27.7 km/h 74% 0.0 mm
13:27 6.0 °C 2.0 °C 1011.1 hPa South 19.1 km/h 27.7 km/h 73% 0.0 mm
13:32 6.1 °C 2.0 °C 1011.1 hPa South 17.7 km/h 26.7 km/h 74% 0.0 mm
13:37 6.0 °C 2.0 °C 1011.1 hPa SSW 12.2 km/h 26.7 km/h 74% 0.0 mm
13:42 6.0 °C 2.0 °C 1011.1 hPa SSW 20.6 km/h 24.5 km/h 74% 0.0 mm
13:47 6.2 °C 3.0 °C 1011.1 hPa SSW 13.0 km/h 20.6 km/h 75% 0.0 mm
13:52 6.3 °C 3.0 °C 1011.1 hPa South 12.6 km/h 25.6 km/h 75% 0.0 mm
13:57 6.2 °C 2.0 °C 1011.1 hPa South 12.6 km/h 25.6 km/h 74% 0.0 mm
14:02 6.3 °C 3.0 °C 1011.1 hPa SSW 16.6 km/h 22.4 km/h 75% 0.0 mm
14:07 6.4 °C 2.0 °C 1011.1 hPa South 16.6 km/h 24.8 km/h 74% 0.0 mm
14:12 6.5 °C 3.0 °C 1011.1 hPa South 17.7 km/h 24.8 km/h 74% 0.0 mm
14:17 6.7 °C 3.0 °C 1010.0 hPa SSE 9.3 km/h 24.5 km/h 74% 0.0 mm
14:22 6.4 °C 2.0 °C 1010.0 hPa SSW 13.7 km/h 24.5 km/h 73% 0.0 mm
14:27 6.4 °C 2.0 °C 1010.0 hPa SSW 12.2 km/h 22.7 km/h 73% 0.0 mm
14:32 6.4 °C 2.0 °C 1010.0 hPa SSE 16.3 km/h 23.0 km/h 73% 0.0 mm
14:37 6.3 °C 2.0 °C 1010.0 hPa SSE 13.0 km/h 24.5 km/h 73% 0.0 mm
14:42 6.3 °C 2.0 °C 1010.0 hPa SSE 11.6 km/h 24.5 km/h 73% 0.0 mm
14:47 6.3 °C 2.0 °C 1010.0 hPa SSW 9.7 km/h 21.2 km/h 74% 0.0 mm
14:52 6.3 °C 2.0 °C 1010.0 hPa SSW 15.1 km/h 23.0 km/h 73% 0.0 mm
14:57 6.3 °C 2.0 °C 1010.0 hPa SSE 20.9 km/h 24.8 km/h 74% 0.0 mm
15:02 6.3 °C 2.0 °C 1010.0 hPa South 15.4 km/h 24.8 km/h 73% 0.0 mm
15:07 6.3 °C 2.0 °C 1010.0 hPa South 16.6 km/h 24.5 km/h 74% 0.0 mm
15:12 6.2 °C 2.0 °C 1010.0 hPa South 17.7 km/h 30.6 km/h 74% 0.0 mm
15:17 6.2 °C 2.0 °C 1010.0 hPa SSE 14.3 km/h 30.6 km/h 74% 0.0 mm
15:22 6.1 °C 2.0 °C 1010.0 hPa South 16.9 km/h 24.8 km/h 74% 0.0 mm
15:27 6.2 °C 2.0 °C 1010.0 hPa South 10.1 km/h 24.8 km/h 74% 0.0 mm
15:32 6.2 °C 2.0 °C 1010.0 hPa South 19.5 km/h 23.8 km/h 74% 0.0 mm
15:37 6.2 °C 2.0 °C 1010.0 hPa South 15.8 km/h 23.8 km/h 74% 0.0 mm
15:42 6.3 °C 2.0 °C 1010.0 hPa SSE 10.1 km/h 24.8 km/h 74% 0.0 mm
15:47 6.3 °C 2.0 °C 1010.0 hPa SSE 10.5 km/h 24.8 km/h 74% 0.0 mm
15:52 6.3 °C 2.0 °C 1010.0 hPa South 12.6 km/h 24.8 km/h 74% 0.0 mm
15:57 6.3 °C 2.0 °C 1010.0 hPa South 8.7 km/h 27.7 km/h 73% 0.0 mm
16:02 6.2 °C 2.0 °C 1010.0 hPa SSW 13.7 km/h 27.7 km/h 73% 0.0 mm
16:07 6.3 °C 2.0 °C 1010.0 hPa South 11.9 km/h 24.8 km/h 72% 0.0 mm
16:12 6.3 °C 2.0 °C 1010.0 hPa SSE 14.0 km/h 24.8 km/h 73% 0.0 mm
16:17 6.3 °C 2.0 °C 1010.0 hPa South 15.8 km/h 23.3 km/h 73% 0.0 mm
16:22 6.3 °C 2.0 °C 1010.0 hPa SSW 9.7 km/h 22.4 km/h 73% 0.0 mm
16:27 6.2 °C 2.0 °C 1010.0 hPa SSW 8.7 km/h 16.9 km/h 73% 0.0 mm
16:32 6.2 °C 1.0 °C 1010.0 hPa South 24.8 km/h 24.8 km/h 70% 0.0 mm
16:37 6.2 °C 1.0 °C 1010.0 hPa SSE 14.0 km/h 25.6 km/h 69% 0.0 mm
16:42 6.1 °C 1.0 °C 1010.0 hPa South 16.9 km/h 25.6 km/h 69% 0.0 mm
16:47 6.1 °C 1.0 °C 1010.0 hPa South 9.7 km/h 24.8 km/h 70% 0.0 mm
16:53 6.0 °C 1.0 °C 1010.0 hPa South 14.0 km/h 23.3 km/h 70% 0.0 mm
16:58 6.0 °C 1.0 °C 1010.0 hPa South 10.5 km/h 26.7 km/h 71% 0.0 mm
17:03 5.9 °C 1.0 °C 1010.0 hPa South 23.8 km/h 28.0 km/h 70% 0.0 mm
17:08 5.9 °C 1.0 °C 1010.0 hPa South 21.6 km/h 28.0 km/h 70% 0.0 mm
17:13 5.8 °C 1.0 °C 1010.0 hPa South 21.2 km/h 37.8 km/h 71% 0.0 mm
17:18 5.8 °C 2.0 °C 1010.0 hPa SSE 27.4 km/h 37.8 km/h 72% 0.0 mm
17:23 5.7 °C 1.0 °C 1010.0 hPa SSE 19.1 km/h 30.2 km/h 72% 0.0 mm
17:28 5.7 °C 1.0 °C 1010.0 hPa South 8.7 km/h 25.9 km/h 72% 0.0 mm
17:33 5.6 °C 1.0 °C 1010.0 hPa South 13.0 km/h 23.8 km/h 73% 0.0 mm
17:38 5.6 °C 1.0 °C 1010.0 hPa SSW 17.2 km/h 24.5 km/h 73% 0.0 mm
17:43 5.5 °C 1.0 °C 1010.0 hPa SSE 11.9 km/h 24.5 km/h 73% 0.0 mm
17:48 5.6 °C 1.0 °C 1010.0 hPa SSE 12.6 km/h 28.5 km/h 73% 0.0 mm
17:53 5.5 °C 2.0 °C 1010.0 hPa SSE 14.0 km/h 28.5 km/h 74% 0.0 mm
17:58 5.5 °C 1.0 °C 1010.0 hPa SSE 20.6 km/h 24.8 km/h 73% 0.0 mm
18:03 5.4 °C 1.0 °C 1009.0 hPa South 20.6 km/h 24.8 km/h 73% 0.0 mm
18:08 5.4 °C 1.0 °C 1009.0 hPa South 9.3 km/h 29.1 km/h 73% 0.0 mm
18:13 5.4 °C 1.0 °C 1009.0 hPa South 13.7 km/h 33.8 km/h 72% 0.0 mm
18:18 5.4 °C 1.0 °C 1009.0 hPa SSE 15.4 km/h 33.8 km/h 73% 0.0 mm
18:23 5.4 °C 1.0 °C 1009.0 hPa SSE 16.9 km/h 27.4 km/h 73% 0.0 mm
18:28 5.3 °C 1.0 °C 1009.0 hPa South 16.3 km/h 27.4 km/h 74% 0.0 mm
18:33 5.3 °C 1.0 °C 1009.0 hPa South 9.7 km/h 27.4 km/h 74% 0.0 mm
18:38 5.3 °C 1.0 °C 1009.0 hPa SE 18.0 km/h 27.4 km/h 74% 0.0 mm
18:43 5.2 °C 1.0 °C 1009.0 hPa SSW 16.3 km/h 27.0 km/h 75% 0.0 mm
18:48 5.1 °C 1.0 °C 1009.0 hPa South 16.9 km/h 27.0 km/h 75% 0.0 mm
18:54 5.1 °C 1.0 °C 1009.0 hPa SSW 9.3 km/h 22.7 km/h 75% 0.0 mm
18:59 5.1 °C 1.0 °C 1009.0 hPa South 19.5 km/h 26.2 km/h 75% 0.0 mm
19:04 5.1 °C 1.0 °C 1009.0 hPa South 14.0 km/h 27.0 km/h 75% 0.0 mm
19:09 5.1 °C 1.0 °C 1009.0 hPa SSE 13.0 km/h 27.0 km/h 76% 0.0 mm
19:14 5.0 °C 1.0 °C 1008.0 hPa SSW 10.1 km/h 27.0 km/h 76% 0.0 mm
19:19 5.0 °C 1.0 °C 1008.0 hPa South 29.9 km/h 29.9 km/h 76% 0.0 mm
19:24 5.0 °C 1.0 °C 1008.0 hPa SSE 20.6 km/h 29.9 km/h 76% 0.0 mm
19:29 5.0 °C 1.0 °C 1008.0 hPa South 14.0 km/h 32.0 km/h 76% 0.0 mm
19:34 5.0 °C 1.0 °C 1008.0 hPa SSW 27.7 km/h 32.0 km/h 76% 0.0 mm
19:39 5.0 °C 2.0 °C 1008.0 hPa South 19.8 km/h 27.7 km/h 77% 0.0 mm
19:44 5.0 °C 2.0 °C 1009.0 hPa South 30.6 km/h 30.6 km/h 77% 0.0 mm
19:49 5.0 °C 2.0 °C 1009.0 hPa SSW 19.8 km/h 30.6 km/h 78% 0.0 mm
19:54 4.9 °C 2.0 °C 1009.0 hPa South 21.6 km/h 22.4 km/h 79% 0.0 mm
19:59 4.8 °C 2.0 °C 1008.0 hPa South 17.2 km/h 21.6 km/h 80% 0.0 mm
20:04 4.8 °C 2.0 °C 1008.0 hPa SSW 10.5 km/h 24.5 km/h 81% 0.0 mm
20:09 4.7 °C 2.0 °C 1008.0 hPa South 12.6 km/h 33.5 km/h 82% 0.0 mm
20:14 4.7 °C 2.0 °C 1009.0 hPa South 14.8 km/h 33.5 km/h 83% 0.0 mm
20:19 4.6 °C 2.0 °C 1009.0 hPa SSE 25.9 km/h 27.4 km/h 84% 0.0 mm
20:24 4.6 °C 2.0 °C 1009.0 hPa SSW 15.8 km/h 37.0 km/h 84% 0.0 mm
20:29 4.6 °C 2.0 °C 1009.0 hPa South 16.9 km/h 37.0 km/h 83% 0.0 mm
20:34 4.7 °C 2.0 °C 1009.0 hPa SSW 11.6 km/h 26.2 km/h 83% 0.0 mm
20:39 4.6 °C 2.0 °C 1009.0 hPa South 14.0 km/h 26.2 km/h 84% 0.0 mm
20:44 4.6 °C 2.0 °C 1009.0 hPa South 15.8 km/h 24.8 km/h 84% 0.0 mm
20:49 4.6 °C 2.0 °C 1009.0 hPa SSW 24.8 km/h 24.8 km/h 84% 0.0 mm
20:54 4.6 °C 2.0 °C 1009.0 hPa South 27.4 km/h 36.4 km/h 84% 0.0 mm
20:59 4.5 °C 3.0 °C 1009.0 hPa SSW 16.3 km/h 36.4 km/h 85% 0.3 mm
21:04 4.4 °C 2.0 °C 1009.0 hPa SSE 21.2 km/h 28.8 km/h 85% 0.3 mm
21:09 4.4 °C 2.0 °C 1009.0 hPa SSW 15.4 km/h 28.8 km/h 86% 0.3 mm
21:15 4.4 °C 2.0 °C 1009.0 hPa SSW 21.6 km/h 25.3 km/h 86% 0.3 mm
21:20 4.3 °C 2.0 °C 1009.0 hPa South 24.5 km/h 28.5 km/h 86% 0.3 mm
21:25 4.3 °C 3.0 °C 1009.0 hPa SSE 22.4 km/h 35.2 km/h 87% 0.3 mm
21:30 4.2 °C 3.0 °C 1008.0 hPa SSW 13.7 km/h 35.2 km/h 87% 0.3 mm
21:40 4.2 °C 3.0 °C 1008.0 hPa SSE 28.5 km/h 37.8 km/h 88% 0.3 mm
21:45 4.2 °C 3.0 °C 1008.0 hPa South 13.7 km/h 28.5 km/h 88% 0.3 mm
21:50 4.1 °C 2.0 °C 1008.0 hPa South 13.0 km/h 38.1 km/h 88% 0.3 mm
21:55 4.1 °C 2.0 °C 1008.0 hPa SSW 14.0 km/h 38.1 km/h 88% 0.3 mm
22:00 4.0 °C 3.0 °C 1007.0 hPa SSW 23.3 km/h 38.1 km/h 89% 0.0 mm
22:05 4.1 °C 3.0 °C 1007.0 hPa South 23.3 km/h 38.1 km/h 89% 0.0 mm
22:10 4.0 °C 3.0 °C 1007.0 hPa South 22.4 km/h 31.7 km/h 89% 0.0 mm
22:15 4.0 °C 3.0 °C 1007.0 hPa South 41.0 km/h 41.0 km/h 90% 0.0 mm
22:20 4.0 °C 3.0 °C 1007.0 hPa SSW 17.7 km/h 41.0 km/h 90% 0.3 mm
22:25 4.0 °C 3.0 °C 1007.0 hPa West 28.8 km/h 41.0 km/h 90% 0.3 mm
22:30 4.0 °C 3.0 °C 1007.0 hPa South 19.5 km/h 41.0 km/h 90% 0.3 mm
22:35 4.0 °C 3.0 °C 1007.0 hPa SSE 19.8 km/h 35.6 km/h 91% 0.3 mm
22:40 4.0 °C 3.0 °C 1007.0 hPa SSW 20.9 km/h 42.2 km/h 91% 0.3 mm
22:45 4.0 °C 3.0 °C 1007.0 hPa South 14.8 km/h 42.2 km/h 91% 0.3 mm
22:51 3.9 °C 3.0 °C 1007.0 hPa SSE 24.8 km/h 31.7 km/h 92% 0.8 mm
22:56 4.0 °C 3.0 °C 1007.0 hPa South 24.8 km/h 35.2 km/h 92% 0.8 mm
23:01 4.0 °C 3.0 °C 1007.0 hPa South 30.6 km/h 35.2 km/h 92% 0.8 mm
23:06 4.0 °C 3.0 °C 1007.0 hPa SSE 21.9 km/h 30.6 km/h 92% 0.8 mm
23:11 4.0 °C 3.0 °C 1007.0 hPa SSW 17.2 km/h 30.9 km/h 92% 1.0 mm
23:16 4.0 °C 3.0 °C 1007.0 hPa South 17.2 km/h 40.7 km/h 92% 0.5 mm
23:21 4.0 °C 3.0 °C 1007.0 hPa SSW 20.1 km/h 40.7 km/h 93% 0.5 mm
23:26 4.0 °C 3.0 °C 1007.0 hPa SSE 16.3 km/h 24.5 km/h 93% 0.8 mm
23:31 4.0 °C 3.0 °C 1007.0 hPa SSE 23.8 km/h 26.7 km/h 93% 0.8 mm
23:36 4.0 °C 3.0 °C 1007.0 hPa SSE 16.6 km/h 27.7 km/h 93% 0.8 mm
23:41 4.0 °C 3.0 °C 1007.0 hPa SSW 21.2 km/h 27.7 km/h 94% 1.3 mm
23:46 4.0 °C 3.0 °C 1007.0 hPa South 17.2 km/h 22.7 km/h 94% 1.3 mm
23:51 4.0 °C 3.0 °C 1007.0 hPa South 21.2 km/h 24.8 km/h 94% 0.8 mm
23:56 3.9 °C 3.0 °C 1007.0 hPa SSE 7.9 km/h 24.8 km/h 95% 0.8 mm
Données Historique de Météo Turbie

Mise a jour : 18/06/2018 00:21:13
Généré par Cumulus 1.9.4 (1099)